sat.trackr.live / text

‹ back to catalog

STARLINK-35379

NORAD 66084 · 2025-235AC

PAYLOAD ACTIVE UNKNOWN

§ Identity

Operator
Country
US
Launch date
2025-10-19
Launch site
AFETR
Launch vehicle
Mass (kg)
RCS (m²)

Purposes: comms

External: N2YO · Heavens-Above · Gunter

§ Orbital elements

Epoch: 2026-09-20T17:34:44.605344Z

Period
93.85 min
Inclination
53.1595°
Eccentricity
0.0001329
Mean motion
15.34400016 rev/d
Perigee alt
461.8 km
Apogee alt
463.6 km
Semi-major
6,840.8 km
B*
6.6196e-4
RAAN
58.5850°
Arg perigee
85.0137°
Mean anomaly
275.1017°
Rev number
5,279

§ Raw data

STARLINK-353791 66084U 25235AC  26263.73246071  .00022055  00000+0  66196-3 0  99942 66084  53.1595  58.5850 0001329  85.0137 275.1017 15.34400016 52794

JSON: /api/v1/satellites/66084 · /tle

For live sub-satellite position, see the globe view (requires WebGL).

§ Visibility from observer

Set your observer location to see the next 7 days of passes ≥ 10°. The values pass through the URL so the page stays shareable.

No JS? Fill the form by hand. The geolocation button needs JavaScript.